Location: Unspecified
(0.0000°N, 0.0000°E)
Time: 01:29:03
(UTC+02:00)

HO-68 - Visible Passes

Search period start: 30 August 2016 00:00
Search period end: 09 September 2016 00:00
Orbit: 1193 x 1204 km, 100.1° (Epoch: 29 August)

Date Brightness Start Highest point End Pass type
(mag) Time Alt. Az. Time Alt. Az. Time Alt. Az.
30 Aug ? 20:28:11 10° ESE 20:32:48 18° ENE 20:37:23 10° NE visible
30 Aug ? 22:13:18 10° S 22:20:10 48° WSW 22:27:01 10° NNW visible
31 Aug ? 21:56:09 10° S 22:03:18 68° WSW 22:10:26 10° NNW visible
01 Sep ? 21:39:12 10° SSE 21:46:27 87° ENE 21:53:39 10° NNW visible
02 Sep ? 21:22:29 10° SSE 21:29:35 62° ENE 21:36:39 10° N visible
02 Sep ? 23:13:46 10° SW 23:16:55 13° WSW 23:20:04 10° W visible
03 Sep ? 21:05:58 10° SE 21:12:43 44° ENE 21:19:26 10° N visible
03 Sep ? 22:55:07 10° SSW 23:00:05 20° WSW 23:05:04 10° WNW visible
04 Sep ? 20:49:43 10° SE 20:55:52 31° ENE 21:01:59 10° NNE visible
04 Sep ? 22:37:14 10° SSW 22:43:15 29° WSW 22:49:16 10° NW visible
05 Sep ? 20:33:51 10° ESE 20:39:02 21° ENE 20:44:11 10° NNE visible
05 Sep ? 22:19:44 10° S 22:26:25 42° WSW 22:33:05 10° NW visible
06 Sep ? 20:18:41 10° ESE 20:22:12 14° ENE 20:25:42 10° NE visible
06 Sep ? 22:02:30 10° S 22:09:34 59° WSW 22:16:36 10° NNW visible
07 Sep ? 21:45:28 10° SSE 21:52:42 83° WSW 21:59:54 10° NNW visible
08 Sep ? 21:28:39 10° SSE 21:35:50 72° ENE 21:42:58 10° N visible
08 Sep ? 23:21:28 10° WSW 23:23:08 11° WSW 23:24:47 10° W visible
